WB0VGI-1 Weather Reports


time (UTC)temp
F
wind
direction
speed
knots
gust
knots
rain 1hr
in
rain 24hr
in
rain mn
in
humidity
%
barometer
mb
20260510224706 58 309 4.3 4.3 0.00 0.00 0.00 35 1024.4
20260510222705 58 334 3.5 3.5 0.00 0.00 0.00 35 1024.4
20260510220705 59 265 3.5 3.5 0.00 0.00 0.00 36 1024.3
20260510214705 58 254 2.6 2.6 0.00 0.00 0.00 37 1024.3
20260510212705 58 360 4.3 4.3 0.00 0.00 0.00 38 1024.3
20260510210706 58 286 4.3 4.3 0.00 0.00 0.00 37 1024.2
20260510204705 58 232 5.2 5.2 0.00 0.00 0.00 39 1024.2
20260510202705 57 24 2.6 2.6 0.00 0.00 0.00 41 1024.3
20260510200705 56 346 3.5 3.5 0.00 0.00 0.00 41 1024.4
20260510194705 56 318 4.3 4.3 0.00 0.00 0.00 42 1024.4
20260510192705 55 270 3.5 3.5 0.00 0.00 0.00 43 1024.6
20260510190705 55 9 4.3 4.3 0.00 0.00 0.00 41 1024.5
20260510184705 55 15 4.3 4.3 0.00 0.00 0.00 42 1024.7
20260510182705 54 306 6.1 6.1 0.00 0.00 0.00 44 1024.7
20260510180705 54 342 5.2 5.2 0.00 0.00 0.00 44 1024.6
20260510174705 53 337 6.1 6.1 0.00 0.00 0.00 45 1024.5
20260510172705 53 342 5.2 5.2 0.00 0.00 0.00 47 1024.5
20260510170705 53 357 6.1 6.1 0.00 0.00 0.00 46 1024.4
20260510164705 52 1 4.3 4.3 0.00 0.00 0.00 48 1024.6
20260510162705 51 359 7.0 7.0 0.00 0.00 0.00 49 1024.3
20260510160705 50 349 5.2 5.2 0.00 0.00 0.00 48 1024.4
20260510154705 50 338 5.2 5.2 0.00 0.00 0.00 49 1024.3
20260510152705 49 7 7.0 7.0 0.00 0.00 0.00 48 1024.3
20260510150705 49 7 5.2 5.2 0.00 0.00 0.00 51 1024.1
20260510144705 48 2 6.1 6.1 0.00 0.00 0.00 52 1024.1
20260510142705 48 344 7.0 7.0 0.00 0.00 0.00 56 1024.0
20260510140705 47 354 5.2 5.2 0.00 0.00 0.00 61 1023.9
20260510134706 46 332 4.3 4.3 0.00 0.00 0.00 66 1023.9
20260510132705 45 347 3.5 3.5 0.00 0.00 0.00 74 1023.9
20260510130705 44 360 5.2 5.2 0.00 0.00 0.00 75 1023.9
20260510124705 44 355 2.6 2.6 0.00 0.00 0.00 73 1023.8
20260510122705 43 355 1.7 1.7 0.00 0.00 0.00 77 1023.5
20260510120705 42 233 1.7 1.7 0.00 0.00 0.00 77 1023.4
20260510114705 42 225 1.7 1.7 0.00 0.00 0.00 76 1023.1
20260510112705 42 234 1.7 1.7 0.00 0.00 0.00 74 1022.9
20260510110705 41 230 2.6 2.6 0.00 0.00 0.00 75 1022.7
20260510104705 42 243 0.0 0.0 0.00 0.00 0.00 73 1022.4
20260510102705 42 202 0.0 0.0 0.00 0.00 0.00 73 1022.2
20260510100705 42 267 0.9 0.9 0.00 0.00 0.00 71 1021.8
20260510094705 42 340 1.7 1.7 0.00 0.00 0.00 68 1021.5
20260510092705 43 354 2.6 2.6 0.00 0.00 0.00 67 1021.3
20260510090705 43 348 3.5 3.5 0.00 0.00 0.00 67 1021.2
20260510084705 43 360 3.5 3.5 0.00 0.00 0.00 67 1021.0
20260510082705 42 190 0.9 0.9 0.00 0.00 0.00 71 1020.6
20260510080705 42 223 1.7 1.7 0.00 0.00 0.00 65 1020.3
20260510074705 42 250 2.6 2.6 0.00 0.00 0.00 64 1020.2
20260510072705 42 230 2.6 2.6 0.00 0.00 0.00 64 1020.2
20260510070705 42 230 2.6 2.6 0.00 0.00 0.00 63 1020.0
20260510064705 43 225 2.6 2.6 0.00 0.00 0.00 61 1019.9
20260510062705 43 242 2.6 2.6 0.00 0.00 0.00 59 1019.8
20260510060705 44 225 2.6 2.6 0.00 0.00 0.00 58 1019.8
20260510054705 44 240 2.6 2.6 0.00 0.00 0.00 58 1019.7
20260510052705 45 242 2.6 2.6 0.00 0.00 0.00 57 1019.5
20260510050705 45 245 2.6 2.6 0.00 0.00 0.00 57 1019.4
20260510044705 46 235 2.6 2.6 0.00 0.00 0.00 55 1019.3
20260510042705 46 239 2.6 2.6 0.00 0.00 0.00 56 1019.2
20260510040705 47 241 1.7 1.7 0.00 0.00 0.00 54 1018.9
20260510034705 48 338 0.9 0.9 0.00 0.00 0.00 51 1018.8
20260510032705 49 331 2.6 2.6 0.00 0.00 0.00 50 1018.6
20260510030705 50 358 3.5 3.5 0.00 0.00 0.00 49 1018.3
20260510024705 51 350 3.5 3.5 0.00 0.00 0.00 47 1017.9
20260510022705 51 348 3.5 3.5 0.00 0.00 0.00 46 1017.3
20260510020705 52 353 3.5 3.5 0.00 0.00 0.00 46 1016.8
20260510014705 53 343 6.1 6.1 0.00 0.00 0.00 43 1016.4
20260510012705 53 343 3.5 3.5 0.00 0.00 0.00 42 1016.0
20260510010705 54 360 5.2 5.2 0.00 0.00 0.00 42 1015.7
20260510004705 55 345 4.3 4.3 0.00 0.00 0.00 40 1015.3
20260510002705 55 1 6.1 6.1 0.00 0.00 0.00 38 1015.0
20260510000705 57 355 6.1 6.1 0.00 0.00 0.00 36 1014.6
20260509234705 57 10 6.1 6.1 0.00 0.00 0.00 36 1014.4
20260509232705 59 355 7.8 7.8 0.00 0.00 0.00 35 1014.1
20260509230705 59 11 7.8 7.8 0.00 0.00 0.00 34 1014.0